Year,Month,Day,Hour,Minute,Value (Times are PST for windspeed in km/hr)
2018,02,26,00,00,0.10
2018,02,26,00,01,0.00
2018,02,26,00,02,0.00
2018,02,26,00,03,0.10
2018,02,26,00,04,0.10
2018,02,26,00,05,0.10
2018,02,26,00,06,0.80
2018,02,26,00,07,0.70
2018,02,26,00,08,1.50
2018,02,26,00,09,2.70
2018,02,26,00,10,4.20
2018,02,26,00,11,4.20
2018,02,26,00,12,4.80
2018,02,26,00,13,3.90
2018,02,26,00,14,3.80
2018,02,26,00,15,3.70
2018,02,26,00,16,0.80
2018,02,26,00,17,0.80
2018,02,26,00,18,3.70
2018,02,26,00,19,4.20
2018,02,26,00,20,4.40
2018,02,26,00,21,4.20
2018,02,26,00,22,2.70
2018,02,26,00,23,2.50
2018,02,26,00,24,0.50
2018,02,26,00,25,2.10
2018,02,26,00,26,2.60
2018,02,26,00,27,1.40
2018,02,26,00,28,0.00
2018,02,26,00,29,0.00
2018,02,26,00,30,0.00
2018,02,26,00,31,0.00
2018,02,26,00,32,0.00
2018,02,26,00,33,0.00
2018,02,26,00,34,0.00
2018,02,26,00,35,0.00
2018,02,26,00,36,0.00
2018,02,26,00,37,0.00
2018,02,26,00,38,0.80
2018,02,26,00,39,0.00
2018,02,26,00,40,0.00
2018,02,26,00,41,1.10
2018,02,26,00,42,0.90
2018,02,26,00,43,0.00
2018,02,26,00,44,0.00
2018,02,26,00,45,0.10
2018,02,26,00,46,0.00
2018,02,26,00,47,0.00
2018,02,26,00,48,1.40
2018,02,26,00,49,4.00
2018,02,26,00,50,4.00
2018,02,26,00,51,3.90
2018,02,26,00,52,3.90
2018,02,26,00,53,3.90
2018,02,26,00,54,3.60
2018,02,26,00,55,2.30
2018,02,26,00,56,2.80
2018,02,26,00,57,1.10
2018,02,26,00,58,0.00
2018,02,26,00,59,0.00
2018,02,26,01,00,0.00
2018,02,26,01,01,0.00
2018,02,26,01,02,0.00
2018,02,26,01,03,0.00
2018,02,26,01,04,0.00
2018,02,26,01,05,0.00
2018,02,26,01,06,0.00
2018,02,26,01,07,0.00
2018,02,26,01,08,0.00
2018,02,26,01,09,0.00
2018,02,26,01,10,0.00
2018,02,26,01,11,0.00
2018,02,26,01,12,0.00
2018,02,26,01,13,0.60
2018,02,26,01,14,1.80
2018,02,26,01,15,2.50
2018,02,26,01,16,2.20
2018,02,26,01,17,3.30
2018,02,26,01,18,2.90
2018,02,26,01,19,1.70
2018,02,26,01,20,0.40
2018,02,26,01,21,0.60
2018,02,26,01,22,0.10
2018,02,26,01,23,1.60
2018,02,26,01,24,0.10
2018,02,26,01,25,0.00
2018,02,26,01,26,0.40
2018,02,26,01,27,0.00
2018,02,26,01,28,0.00
2018,02,26,01,29,0.00
2018,02,26,01,30,0.00
2018,02,26,01,31,0.00
2018,02,26,01,32,0.90
2018,02,26,01,33,3.60
2018,02,26,01,34,4.20
2018,02,26,01,35,3.90
2018,02,26,01,36,2.80
2018,02,26,01,37,0.00
2018,02,26,01,38,0.00
2018,02,26,01,39,0.00
2018,02,26,01,40,1.20
2018,02,26,01,41,1.40
2018,02,26,01,42,0.00
2018,02,26,01,43,0.00
2018,02,26,01,44,0.00
2018,02,26,01,45,0.00
2018,02,26,01,46,0.00
2018,02,26,01,47,1.20
2018,02,26,01,48,1.60
2018,02,26,01,49,1.70
2018,02,26,01,50,2.40
2018,02,26,01,51,2.40
2018,02,26,01,52,0.90
2018,02,26,01,53,2.10
2018,02,26,01,54,0.50
2018,02,26,01,55,0.20
2018,02,26,01,56,0.00
2018,02,26,01,57,0.00
2018,02,26,01,58,0.00
2018,02,26,01,59,0.00
2018,02,26,02,00,0.00
2018,02,26,02,01,0.00
2018,02,26,02,02,0.00
2018,02,26,02,03,0.00
2018,02,26,02,04,0.00
2018,02,26,02,05,0.00
2018,02,26,02,06,0.00
2018,02,26,02,07,0.00
2018,02,26,02,08,0.00
2018,02,26,02,09,0.00
2018,02,26,02,10,0.00
2018,02,26,02,11,0.00
2018,02,26,02,12,0.00
2018,02,26,02,13,0.00
2018,02,26,02,14,0.00
2018,02,26,02,15,0.00
2018,02,26,02,16,0.00
2018,02,26,02,17,0.00
2018,02,26,02,18,0.70
2018,02,26,02,19,2.20
2018,02,26,02,20,2.50
2018,02,26,02,21,3.40
2018,02,26,02,22,2.50
2018,02,26,02,23,1.00
2018,02,26,02,24,1.60
2018,02,26,02,25,3.20
2018,02,26,02,26,2.80
2018,02,26,02,27,1.40
2018,02,26,02,28,1.70
2018,02,26,02,29,0.70
2018,02,26,02,30,1.10
2018,02,26,02,31,0.00
2018,02,26,02,32,0.00
2018,02,26,02,33,0.00
2018,02,26,02,34,0.00
2018,02,26,02,35,0.00
2018,02,26,02,36,0.00
2018,02,26,02,37,0.00
2018,02,26,02,38,0.00
2018,02,26,02,39,0.00
2018,02,26,02,40,0.10
2018,02,26,02,41,2.00
2018,02,26,02,42,2.80
2018,02,26,02,43,1.70
2018,02,26,02,44,0.50
2018,02,26,02,45,0.00
2018,02,26,02,46,0.00
2018,02,26,02,47,0.00
2018,02,26,02,48,0.00
2018,02,26,02,49,0.00
2018,02,26,02,50,0.00
2018,02,26,02,51,0.00
2018,02,26,02,52,0.00
2018,02,26,02,53,0.00
2018,02,26,02,54,1.80
2018,02,26,02,55,3.40
2018,02,26,02,56,2.20
2018,02,26,02,57,0.20
2018,02,26,02,58,0.00
2018,02,26,02,59,0.00
2018,02,26,03,00,2.20
2018,02,26,03,01,3.20
2018,02,26,03,02,3.00
2018,02,26,03,03,1.60
2018,02,26,03,04,0.90
2018,02,26,03,05,0.00
2018,02,26,03,06,0.00
2018,02,26,03,07,0.00
2018,02,26,03,08,0.00
2018,02,26,03,09,0.00
2018,02,26,03,10,0.00
2018,02,26,03,11,0.00
2018,02,26,03,12,0.00
2018,02,26,03,13,0.00
2018,02,26,03,14,0.00
2018,02,26,03,15,0.00
2018,02,26,03,16,0.00
2018,02,26,03,17,0.00
2018,02,26,03,18,0.00
2018,02,26,03,19,0.00
2018,02,26,03,20,0.10
2018,02,26,03,21,2.70
2018,02,26,03,22,1.70
2018,02,26,03,23,2.00
2018,02,26,03,24,1.70
2018,02,26,03,25,0.10
2018,02,26,03,26,0.00
2018,02,26,03,27,0.00
2018,02,26,03,28,0.00
2018,02,26,03,29,0.00
2018,02,26,03,30,0.10
2018,02,26,03,31,0.00
2018,02,26,03,32,0.00
2018,02,26,03,33,0.00
2018,02,26,03,34,0.90
2018,02,26,03,35,0.20
2018,02,26,03,36,0.00
2018,02,26,03,37,0.00
2018,02,26,03,38,0.00
2018,02,26,03,39,0.10
2018,02,26,03,40,0.10
2018,02,26,03,41,0.00
2018,02,26,03,42,0.00
2018,02,26,03,43,0.00
2018,02,26,03,44,0.00
2018,02,26,03,45,0.00
2018,02,26,03,46,0.00
2018,02,26,03,47,0.00
2018,02,26,03,48,0.00
2018,02,26,03,49,0.00
2018,02,26,03,50,0.00
2018,02,26,03,51,0.00
2018,02,26,03,52,0.00
2018,02,26,03,53,0.00
2018,02,26,03,54,0.00
2018,02,26,03,55,0.70
2018,02,26,03,56,0.00
2018,02,26,03,57,0.00
2018,02,26,03,58,0.40
2018,02,26,03,59,1.60
2018,02,26,04,00,0.00
2018,02,26,04,01,0.00
2018,02,26,04,02,0.00
2018,02,26,04,03,2.90
2018,02,26,04,04,4.80
2018,02,26,04,05,4.80
2018,02,26,04,06,4.70
2018,02,26,04,07,2.90
2018,02,26,04,08,2.90
2018,02,26,04,09,2.30
2018,02,26,04,10,2.10
2018,02,26,04,11,0.70
2018,02,26,04,12,2.10
2018,02,26,04,13,1.30
2018,02,26,04,14,1.90
2018,02,26,04,15,1.90
2018,02,26,04,16,1.30
2018,02,26,04,17,0.70
2018,02,26,04,18,0.00
2018,02,26,04,19,0.00
2018,02,26,04,20,0.50
2018,02,26,04,21,1.10
2018,02,26,04,22,2.50
2018,02,26,04,23,1.70
2018,02,26,04,24,0.20
2018,02,26,04,25,0.00
2018,02,26,04,26,0.00
2018,02,26,04,27,1.40
2018,02,26,04,28,2.80
2018,02,26,04,29,2.70
2018,02,26,04,30,3.30
2018,02,26,04,31,2.80
2018,02,26,04,32,3.80
2018,02,26,04,33,3.40
2018,02,26,04,34,4.10
2018,02,26,04,35,3.90
2018,02,26,04,36,3.80
2018,02,26,04,37,4.60
2018,02,26,04,38,4.80
2018,02,26,04,39,4.90
2018,02,26,04,40,4.20
2018,02,26,04,41,4.50
2018,02,26,04,42,2.30
2018,02,26,04,43,3.80
2018,02,26,04,44,3.30
2018,02,26,04,45,3.20
2018,02,26,04,46,2.00
2018,02,26,04,47,1.50
2018,02,26,04,48,2.60
2018,02,26,04,49,2.10
2018,02,26,04,50,0.20
2018,02,26,04,51,0.10
2018,02,26,04,52,0.00
2018,02,26,04,53,0.00
2018,02,26,04,54,0.00
2018,02,26,04,55,0.00
2018,02,26,04,56,0.60
2018,02,26,04,57,0.20
2018,02,26,04,58,0.00
2018,02,26,04,59,0.00
2018,02,26,05,00,0.00
2018,02,26,05,01,0.00
2018,02,26,05,02,0.00
2018,02,26,05,03,0.00
2018,02,26,05,04,0.00
2018,02,26,05,05,0.00
2018,02,26,05,06,0.00
2018,02,26,05,07,0.00
2018,02,26,05,08,0.00
2018,02,26,05,09,0.00
2018,02,26,05,10,0.20
2018,02,26,05,11,1.60
2018,02,26,05,12,0.00
2018,02,26,05,13,0.00
2018,02,26,05,14,0.00
2018,02,26,05,15,0.00
2018,02,26,05,16,0.00
2018,02,26,05,17,0.60
2018,02,26,05,18,3.40
2018,02,26,05,19,3.10
2018,02,26,05,20,2.90
2018,02,26,05,21,1.40
2018,02,26,05,22,1.80
2018,02,26,05,23,1.10
2018,02,26,05,24,1.20
2018,02,26,05,25,0.40
2018,02,26,05,26,0.00
2018,02,26,05,27,0.00
2018,02,26,05,28,1.40
2018,02,26,05,29,0.20
2018,02,26,05,30,0.20
2018,02,26,05,31,0.40
2018,02,26,05,32,0.00
2018,02,26,05,33,0.00
2018,02,26,05,34,0.00
2018,02,26,05,35,0.00
2018,02,26,05,36,0.00
2018,02,26,05,37,0.90
2018,02,26,05,38,0.20
2018,02,26,05,39,0.50
2018,02,26,05,40,1.20
2018,02,26,05,41,0.70
2018,02,26,05,42,2.00
2018,02,26,05,43,2.20
2018,02,26,05,44,2.20
2018,02,26,05,45,2.30
2018,02,26,05,46,3.20
2018,02,26,05,47,2.40
2018,02,26,05,48,1.40
2018,02,26,05,49,2.00
2018,02,26,05,50,2.00
2018,02,26,05,51,1.30
2018,02,26,05,52,0.10
2018,02,26,05,53,0.00
2018,02,26,05,54,0.10
2018,02,26,05,55,0.00
2018,02,26,05,56,0.00
2018,02,26,05,57,0.00
2018,02,26,05,58,0.00
2018,02,26,05,59,0.00
2018,02,26,06,00,0.00
2018,02,26,06,01,0.20
2018,02,26,06,02,0.00
2018,02,26,06,03,0.00
2018,02,26,06,04,0.00
2018,02,26,06,05,0.00
2018,02,26,06,06,0.00
2018,02,26,06,07,0.00
2018,02,26,06,08,0.00
2018,02,26,06,09,0.00
2018,02,26,06,10,0.00
2018,02,26,06,11,0.00
2018,02,26,06,12,0.00
2018,02,26,06,13,0.00
2018,02,26,06,14,0.00
2018,02,26,06,15,1.30
2018,02,26,06,16,2.00
2018,02,26,06,17,2.00
2018,02,26,06,18,2.20
2018,02,26,06,19,1.70
2018,02,26,06,20,1.60
2018,02,26,06,21,0.80
2018,02,26,06,22,0.40
2018,02,26,06,23,3.30
2018,02,26,06,24,2.70
2018,02,26,06,25,2.10
2018,02,26,06,26,1.60
2018,02,26,06,27,0.70
2018,02,26,06,28,0.00
2018,02,26,06,29,0.00
2018,02,26,06,30,0.00
2018,02,26,06,31,0.00
2018,02,26,06,32,0.20
2018,02,26,06,33,0.00
2018,02,26,06,34,0.00
2018,02,26,06,35,0.10
2018,02,26,06,36,1.00
2018,02,26,06,37,1.40
2018,02,26,06,38,2.40
2018,02,26,06,39,2.60
2018,02,26,06,40,2.60
2018,02,26,06,41,2.10
2018,02,26,06,42,0.00
2018,02,26,06,43,0.80
2018,02,26,06,44,0.00
2018,02,26,06,45,0.10
2018,02,26,06,46,0.00
2018,02,26,06,47,0.80
2018,02,26,06,48,0.20
2018,02,26,06,49,0.00
2018,02,26,06,50,0.80
2018,02,26,06,51,0.20
2018,02,26,06,52,0.00
2018,02,26,06,53,0.40
2018,02,26,06,54,1.00
2018,02,26,06,55,0.00
2018,02,26,06,56,0.00
2018,02,26,06,57,0.00
2018,02,26,06,58,0.00
2018,02,26,06,59,0.00
2018,02,26,07,00,0.00
2018,02,26,07,01,0.00
2018,02,26,07,02,0.00
2018,02,26,07,03,0.00
2018,02,26,07,04,0.00
2018,02,26,07,05,0.00
2018,02,26,07,06,0.00
2018,02,26,07,07,0.80
2018,02,26,07,08,1.40
2018,02,26,07,09,3.40
2018,02,26,07,10,3.60
2018,02,26,07,11,4.10
2018,02,26,07,12,3.70
2018,02,26,07,13,3.70
2018,02,26,07,14,3.60
2018,02,26,07,15,3.40
2018,02,26,07,16,3.40
2018,02,26,07,17,3.10
2018,02,26,07,18,2.70
2018,02,26,07,19,3.00
2018,02,26,07,20,1.50
2018,02,26,07,21,1.40
2018,02,26,07,22,0.20
2018,02,26,07,23,0.10
2018,02,26,07,24,0.00
2018,02,26,07,25,0.00
2018,02,26,07,26,0.00
2018,02,26,07,27,0.00
2018,02,26,07,28,0.80
2018,02,26,07,29,0.00
2018,02,26,07,30,0.00
2018,02,26,07,31,0.00
2018,02,26,07,32,0.00
2018,02,26,07,33,0.00
2018,02,26,07,34,0.00
2018,02,26,07,35,0.00
2018,02,26,07,36,0.00
2018,02,26,07,37,0.00
2018,02,26,07,38,0.00
2018,02,26,07,39,0.00
2018,02,26,07,40,0.00
2018,02,26,07,41,0.00
2018,02,26,07,42,0.00
2018,02,26,07,43,0.00
2018,02,26,07,44,0.00
2018,02,26,07,45,0.00
2018,02,26,07,46,0.00
2018,02,26,07,47,0.00
2018,02,26,07,48,0.00
2018,02,26,07,49,0.00
2018,02,26,07,50,1.60
2018,02,26,07,51,3.70
2018,02,26,07,52,4.80
2018,02,26,07,53,4.10
2018,02,26,07,54,4.30
2018,02,26,07,55,3.90
2018,02,26,07,56,3.10
2018,02,26,07,57,2.50
2018,02,26,07,58,2.70
2018,02,26,07,59,3.00
2018,02,26,08,00,2.80
2018,02,26,08,01,4.10
2018,02,26,08,02,3.00
2018,02,26,08,03,2.30
2018,02,26,08,04,1.00
2018,02,26,08,05,0.80
2018,02,26,08,06,0.10
2018,02,26,08,07,0.00
2018,02,26,08,08,0.00
2018,02,26,08,09,1.50
2018,02,26,08,10,2.90
2018,02,26,08,11,1.70
2018,02,26,08,12,1.80
2018,02,26,08,13,2.70
2018,02,26,08,14,3.60
2018,02,26,08,15,2.60
2018,02,26,08,16,2.50
2018,02,26,08,17,2.40
2018,02,26,08,18,2.50
2018,02,26,08,19,2.70
2018,02,26,08,20,1.30
2018,02,26,08,21,0.80
2018,02,26,08,22,0.00
2018,02,26,08,23,0.40
2018,02,26,08,24,0.30
2018,02,26,08,25,1.00
2018,02,26,08,26,0.10
2018,02,26,08,27,0.00
2018,02,26,08,28,0.00
2018,02,26,08,29,0.00
2018,02,26,08,30,0.20
2018,02,26,08,31,0.00
2018,02,26,08,32,0.40
2018,02,26,08,33,1.10
2018,02,26,08,34,3.20
2018,02,26,08,35,2.90
2018,02,26,08,36,2.90
2018,02,26,08,37,1.30
2018,02,26,08,38,0.10
2018,02,26,08,39,0.50
2018,02,26,08,40,0.80
2018,02,26,08,41,0.00
2018,02,26,08,42,0.00
2018,02,26,08,43,0.00
2018,02,26,08,44,0.00
2018,02,26,08,45,0.10
2018,02,26,08,46,0.50
2018,02,26,08,47,0.50
2018,02,26,08,48,0.40
2018,02,26,08,49,0.80
2018,02,26,08,50,1.20
2018,02,26,08,51,0.50
2018,02,26,08,52,0.70
2018,02,26,08,53,0.80
2018,02,26,08,54,0.80
2018,02,26,08,55,1.00
2018,02,26,08,56,0.20
2018,02,26,08,57,0.80
2018,02,26,08,58,1.30
2018,02,26,08,59,0.10
2018,02,26,09,00,0.70
2018,02,26,09,01,0.40
2018,02,26,09,02,0.50
2018,02,26,09,03,0.30
2018,02,26,09,04,0.00
2018,02,26,09,05,0.20
2018,02,26,09,06,0.00
2018,02,26,09,07,0.80
2018,02,26,09,08,1.60
2018,02,26,09,09,1.30
2018,02,26,09,10,1.00
2018,02,26,09,11,0.00
2018,02,26,09,12,0.00
2018,02,26,09,13,1.70
2018,02,26,09,14,1.40
2018,02,26,09,15,1.60
2018,02,26,09,16,0.80
2018,02,26,09,17,0.50
2018,02,26,09,18,3.80
2018,02,26,09,19,4.50
2018,02,26,09,20,3.60
2018,02,26,09,21,3.50
2018,02,26,09,22,3.20
2018,02,26,09,23,6.30
2018,02,26,09,24,4.60
2018,02,26,09,25,3.00
2018,02,26,09,26,3.20
2018,02,26,09,27,3.60
2018,02,26,09,28,3.60
2018,02,26,09,29,3.60
2018,02,26,09,30,4.50
2018,02,26,09,31,5.50
2018,02,26,09,32,5.60
2018,02,26,09,33,6.60
2018,02,26,09,34,6.60
2018,02,26,09,35,6.60
2018,02,26,09,36,6.00
2018,02,26,09,37,3.80
2018,02,26,09,38,5.90
2018,02,26,09,39,4.20
2018,02,26,09,40,4.10
2018,02,26,09,41,6.30
2018,02,26,09,42,4.60
2018,02,26,09,43,5.10
2018,02,26,09,44,4.40
2018,02,26,09,45,3.50
2018,02,26,09,46,5.50
2018,02,26,09,47,4.80
2018,02,26,09,48,5.70
2018,02,26,09,49,5.10
2018,02,26,09,50,3.60
2018,02,26,09,51,4.70
2018,02,26,09,52,4.60
2018,02,26,09,53,3.80
2018,02,26,09,54,0.80
2018,02,26,09,55,3.50
2018,02,26,09,56,3.50
2018,02,26,09,57,1.50
2018,02,26,09,58,1.30
2018,02,26,09,59,1.40
2018,02,26,10,00,3.70
2018,02,26,10,01,2.00
2018,02,26,10,02,3.50
2018,02,26,10,03,4.20
2018,02,26,10,04,3.60
2018,02,26,10,05,4.00
2018,02,26,10,06,4.80
2018,02,26,10,07,4.60
2018,02,26,10,08,3.30
2018,02,26,10,09,0.70
2018,02,26,10,10,4.50
2018,02,26,10,11,4.50
2018,02,26,10,12,2.40
2018,02,26,10,13,3.60
2018,02,26,10,14,4.50
2018,02,26,10,15,2.90
2018,02,26,10,16,3.70
2018,02,26,10,17,2.80
2018,02,26,10,18,2.80
2018,02,26,10,19,2.90
2018,02,26,10,20,3.10
2018,02,26,10,21,2.50
2018,02,26,10,22,0.00
2018,02,26,10,23,0.40
2018,02,26,10,24,0.90
2018,02,26,10,25,0.20
2018,02,26,10,26,0.00
2018,02,26,10,27,0.00
2018,02,26,10,28,0.00
2018,02,26,10,29,0.20
2018,02,26,10,30,0.00
2018,02,26,10,31,0.20
2018,02,26,10,32,0.00
2018,02,26,10,33,1.50
2018,02,26,10,34,1.20
2018,02,26,10,35,0.60
2018,02,26,10,36,0.00
2018,02,26,10,37,0.00
2018,02,26,10,38,0.00
2018,02,26,10,39,0.00
2018,02,26,10,40,0.00
2018,02,26,10,41,0.00
2018,02,26,10,42,0.00
2018,02,26,10,43,0.00
2018,02,26,10,44,0.00
2018,02,26,10,45,0.30
2018,02,26,10,46,1.40
2018,02,26,10,47,1.00
2018,02,26,10,48,2.10
2018,02,26,10,49,1.00
2018,02,26,10,50,0.70
2018,02,26,10,51,0.00
2018,02,26,10,52,0.20
2018,02,26,10,53,0.00
2018,02,26,10,54,0.00
2018,02,26,10,55,0.00
2018,02,26,10,56,0.00
2018,02,26,10,57,0.00
2018,02,26,10,58,0.00
2018,02,26,10,59,0.00
2018,02,26,11,00,0.00
2018,02,26,11,01,0.20
2018,02,26,11,02,0.00
2018,02,26,11,03,0.10
2018,02,26,11,04,0.00
2018,02,26,11,05,0.00
2018,02,26,11,06,0.00
2018,02,26,11,07,0.00
2018,02,26,11,08,0.00
2018,02,26,11,09,0.00
2018,02,26,11,10,0.00
2018,02,26,11,11,0.00
2018,02,26,11,12,0.00
2018,02,26,11,13,0.00
2018,02,26,11,14,0.00
2018,02,26,11,15,3.40
2018,02,26,11,16,3.90
2018,02,26,11,17,5.00
2018,02,26,11,18,4.40
2018,02,26,11,19,2.20
2018,02,26,11,20,1.20
2018,02,26,11,21,3.40
2018,02,26,11,22,6.00
2018,02,26,11,23,8.90
2018,02,26,11,24,6.40
2018,02,26,11,25,9.80
2018,02,26,11,26,10.60
2018,02,26,11,27,7.80
2018,02,26,11,28,9.80
2018,02,26,11,29,10.20
2018,02,26,11,30,7.10
2018,02,26,11,31,9.10
2018,02,26,11,32,7.70
2018,02,26,11,33,6.90
2018,02,26,11,34,7.10
2018,02,26,11,35,7.00
2018,02,26,11,36,4.60
2018,02,26,11,37,7.10
2018,02,26,11,38,6.20
2018,02,26,11,39,6.90
2018,02,26,11,40,6.70
2018,02,26,11,41,7.20
2018,02,26,11,42,9.10
2018,02,26,11,43,8.10
2018,02,26,11,44,7.80
2018,02,26,11,45,7.30
2018,02,26,11,46,8.00
2018,02,26,11,47,7.60
2018,02,26,11,48,6.60
2018,02,26,11,49,6.50
2018,02,26,11,50,7.60
2018,02,26,11,51,7.10
2018,02,26,11,52,3.90
2018,02,26,11,53,6.40
2018,02,26,11,54,6.00
2018,02,26,11,55,5.50
2018,02,26,11,56,5.70
2018,02,26,11,57,9.80
2018,02,26,11,58,9.60
2018,02,26,11,59,10.60
2018,02,26,12,00,11.30
2018,02,26,12,01,9.40
2018,02,26,12,02,11.20
2018,02,26,12,03,8.30
2018,02,26,12,04,10.80
2018,02,26,12,05,11.30
2018,02,26,12,06,11.30
2018,02,26,12,07,10.30
2018,02,26,12,08,9.30
2018,02,26,12,09,10.90
2018,02,26,12,10,9.00
2018,02,26,12,11,9.80
2018,02,26,12,12,8.80
2018,02,26,12,13,10.80
2018,02,26,12,14,12.90
2018,02,26,12,15,10.70
2018,02,26,12,16,10.30
2018,02,26,12,17,10.10
2018,02,26,12,18,8.00
2018,02,26,12,19,9.00
2018,02,26,12,20,10.20
2018,02,26,12,21,9.90
2018,02,26,12,22,10.60
2018,02,26,12,23,8.40
2018,02,26,12,24,5.20
2018,02,26,12,25,6.40
2018,02,26,12,26,8.80
2018,02,26,12,27,7.30
2018,02,26,12,28,5.00
2018,02,26,12,29,7.50
2018,02,26,12,30,7.20
2018,02,26,12,31,8.30
2018,02,26,12,32,6.80
2018,02,26,12,33,5.70
2018,02,26,12,34,5.90
2018,02,26,12,35,4.90
2018,02,26,12,36,9.20
2018,02,26,12,37,8.10
2018,02,26,12,38,8.80
2018,02,26,12,39,5.70
2018,02,26,12,40,7.20
2018,02,26,12,41,6.60
2018,02,26,12,42,7.50
2018,02,26,12,43,8.10
2018,02,26,12,44,7.80
2018,02,26,12,45,5.20
2018,02,26,12,46,7.30
2018,02,26,12,47,9.10
2018,02,26,12,48,9.50
2018,02,26,12,49,8.30
2018,02,26,12,50,6.00
2018,02,26,12,51,8.20
2018,02,26,12,52,7.80
2018,02,26,12,53,8.90
2018,02,26,12,54,8.20
2018,02,26,12,55,7.00
2018,02,26,12,56,11.70
2018,02,26,12,57,13.20
2018,02,26,12,58,11.70
2018,02,26,12,59,9.80
2018,02,26,13,00,6.90
2018,02,26,13,01,7.20
2018,02,26,13,02,11.10
2018,02,26,13,03,10.60
2018,02,26,13,04,11.90
2018,02,26,13,05,9.20
2018,02,26,13,06,9.70
2018,02,26,13,07,7.60
2018,02,26,13,08,9.40
2018,02,26,13,09,7.00
2018,02,26,13,10,8.10
2018,02,26,13,11,9.40
2018,02,26,13,12,10.00
2018,02,26,13,13,8.40
2018,02,26,13,14,10.90
2018,02,26,13,15,10.60
2018,02,26,13,16,11.30
2018,02,26,13,17,10.70
2018,02,26,13,18,7.90
2018,02,26,13,19,7.30
2018,02,26,13,20,9.50
2018,02,26,13,21,10.00
2018,02,26,13,22,11.50
2018,02,26,13,23,5.70
2018,02,26,13,24,9.60
2018,02,26,13,25,9.40
2018,02,26,13,26,7.90
2018,02,26,13,27,10.90
2018,02,26,13,28,10.30
2018,02,26,13,29,6.50
2018,02,26,13,30,6.00
2018,02,26,13,31,9.10
2018,02,26,13,32,8.30
2018,02,26,13,33,3.30
2018,02,26,13,34,12.60
2018,02,26,13,35,8.80
2018,02,26,13,36,5.90
2018,02,26,13,37,5.70
2018,02,26,13,38,8.50
2018,02,26,13,39,8.80
2018,02,26,13,40,7.30
2018,02,26,13,41,3.60
2018,02,26,13,42,6.70
2018,02,26,13,43,7.40
2018,02,26,13,44,11.10
2018,02,26,13,45,10.30
2018,02,26,13,46,10.90
2018,02,26,13,47,14.70
2018,02,26,13,48,8.90
2018,02,26,13,49,9.80
2018,02,26,13,50,8.40
2018,02,26,13,51,10.30
2018,02,26,13,52,11.10
2018,02,26,13,53,8.30
2018,02,26,13,54,7.30
2018,02,26,13,55,9.20
2018,02,26,13,56,10.70
2018,02,26,13,57,12.50
2018,02,26,13,58,7.90
2018,02,26,13,59,11.70
2018,02,26,14,00,10.50
2018,02,26,14,01,11.20
2018,02,26,14,02,8.30
2018,02,26,14,03,10.40
2018,02,26,14,04,10.70
2018,02,26,14,05,10.00
2018,02,26,14,06,9.10
2018,02,26,14,07,12.50
2018,02,26,14,08,18.70
2018,02,26,14,09,12.60
2018,02,26,14,10,6.60
2018,02,26,14,11,7.10
2018,02,26,14,12,10.50
2018,02,26,14,13,8.80
2018,02,26,14,14,6.90
2018,02,26,14,15,5.10
2018,02,26,14,16,6.40
2018,02,26,14,17,8.20
2018,02,26,14,18,10.70
2018,02,26,14,19,11.60
2018,02,26,14,20,13.60
2018,02,26,14,21,12.00
2018,02,26,14,22,9.50
2018,02,26,14,23,10.50
2018,02,26,14,24,11.40
2018,02,26,14,25,12.90
2018,02,26,14,26,11.00
2018,02,26,14,27,12.00
2018,02,26,14,28,10.30
2018,02,26,14,29,12.00
2018,02,26,14,30,12.10
2018,02,26,14,31,10.70
2018,02,26,14,32,8.80
2018,02,26,14,33,6.70
2018,02,26,14,34,6.60
2018,02,26,14,35,11.90
2018,02,26,14,36,11.20
2018,02,26,14,37,10.80
2018,02,26,14,38,11.10
2018,02,26,14,39,7.70
2018,02,26,14,40,8.90
2018,02,26,14,41,8.50
2018,02,26,14,42,8.50
2018,02,26,14,43,8.20
2018,02,26,14,44,6.70
2018,02,26,14,45,8.50
2018,02,26,14,46,10.10
2018,02,26,14,47,12.20
2018,02,26,14,48,11.40
2018,02,26,14,49,8.50
2018,02,26,14,50,12.70
2018,02,26,14,51,14.10
2018,02,26,14,52,10.70
2018,02,26,14,53,8.10
2018,02,26,14,54,12.70
2018,02,26,14,55,10.50
2018,02,26,14,56,12.20
2018,02,26,14,57,12.60
2018,02,26,14,58,8.70
2018,02,26,14,59,11.80
2018,02,26,15,00,11.30
2018,02,26,15,01,10.00
2018,02,26,15,02,9.20
2018,02,26,15,03,10.90
2018,02,26,15,04,11.90
2018,02,26,15,05,11.60
2018,02,26,15,06,11.60
2018,02,26,15,07,10.80
2018,02,26,15,08,10.30
2018,02,26,15,09,11.70
2018,02,26,15,10,10.90
2018,02,26,15,11,7.30
2018,02,26,15,12,9.20
2018,02,26,15,13,9.50
2018,02,26,15,14,11.30
2018,02,26,15,15,14.80
2018,02,26,15,16,9.90
2018,02,26,15,17,6.90
2018,02,26,15,18,9.30
2018,02,26,15,19,10.70
2018,02,26,15,20,13.50
2018,02,26,15,21,13.50
2018,02,26,15,22,14.20
2018,02,26,15,23,11.50
2018,02,26,15,24,8.20
2018,02,26,15,25,6.90
2018,02,26,15,26,9.70
2018,02,26,15,27,13.60
2018,02,26,15,28,11.60
2018,02,26,15,29,11.10
2018,02,26,15,30,12.20
2018,02,26,15,31,10.40
2018,02,26,15,32,12.40
2018,02,26,15,33,12.90
2018,02,26,15,34,14.50
2018,02,26,15,35,16.10
2018,02,26,15,36,16.10
2018,02,26,15,37,16.10
2018,02,26,15,38,16.40
2018,02,26,15,39,18.30
2018,02,26,15,40,12.90
2018,02,26,15,41,16.90
2018,02,26,15,42,12.00
2018,02,26,15,43,12.30
2018,02,26,15,44,15.00
2018,02,26,15,45,11.30
2018,02,26,15,46,10.10
2018,02,26,15,47,11.60
2018,02,26,15,48,15.90
2018,02,26,15,49,14.40
2018,02,26,15,50,17.30
2018,02,26,15,51,17.00
2018,02,26,15,52,16.60
2018,02,26,15,53,17.60
2018,02,26,15,54,17.30
2018,02,26,15,55,16.20
2018,02,26,15,56,16.20
2018,02,26,15,57,14.40
2018,02,26,15,58,18.60
2018,02,26,15,59,16.10
2018,02,26,16,00,11.50
2018,02,26,16,01,9.30
2018,02,26,16,02,11.10
2018,02,26,16,03,11.30
2018,02,26,16,04,13.10
2018,02,26,16,05,9.30
2018,02,26,16,06,13.20
2018,02,26,16,07,10.10
2018,02,26,16,08,11.00
2018,02,26,16,09,11.30
2018,02,26,16,10,10.70
2018,02,26,16,11,11.00
2018,02,26,16,12,8.30
2018,02,26,16,13,10.40
2018,02,26,16,14,11.70
2018,02,26,16,15,10.70
2018,02,26,16,16,12.10
2018,02,26,16,17,13.70
2018,02,26,16,18,10.80
2018,02,26,16,19,13.60
2018,02,26,16,20,12.80
2018,02,26,16,21,11.40
2018,02,26,16,22,14.50
2018,02,26,16,23,15.90
2018,02,26,16,24,18.90
2018,02,26,16,25,14.40
2018,02,26,16,26,8.80
2018,02,26,16,27,13.20
2018,02,26,16,28,13.00
2018,02,26,16,29,14.50
2018,02,26,16,30,14.70
2018,02,26,16,31,12.50
2018,02,26,16,32,12.60
2018,02,26,16,33,15.00
2018,02,26,16,34,12.20
2018,02,26,16,35,12.60
2018,02,26,16,36,16.00
2018,02,26,16,37,17.70
2018,02,26,16,38,14.20
2018,02,26,16,39,13.80
2018,02,26,16,40,14.00
2018,02,26,16,41,17.00
2018,02,26,16,42,19.50
2018,02,26,16,43,12.40
2018,02,26,16,44,15.70
2018,02,26,16,45,14.90
2018,02,26,16,46,11.80
2018,02,26,16,47,10.40
2018,02,26,16,48,10.20
2018,02,26,16,49,14.20
2018,02,26,16,50,15.40
2018,02,26,16,51,11.10
2018,02,26,16,52,14.50
2018,02,26,16,53,14.40
2018,02,26,16,54,13.60
2018,02,26,16,55,12.80
2018,02,26,16,56,13.80
2018,02,26,16,57,13.20
2018,02,26,16,58,10.40
2018,02,26,16,59,12.30
2018,02,26,17,00,10.90
2018,02,26,17,01,10.40
2018,02,26,17,02,11.10
2018,02,26,17,03,11.00
2018,02,26,17,04,14.70
2018,02,26,17,05,12.60
2018,02,26,17,06,13.10
2018,02,26,17,07,15.10
2018,02,26,17,08,14.50
2018,02,26,17,09,11.30
2018,02,26,17,10,10.70
2018,02,26,17,11,7.50
2018,02,26,17,12,8.10
2018,02,26,17,13,9.50
2018,02,26,17,14,8.40
2018,02,26,17,15,10.80
2018,02,26,17,16,13.30
2018,02,26,17,17,11.50
2018,02,26,17,18,10.30
2018,02,26,17,19,11.60
2018,02,26,17,20,10.10
2018,02,26,17,21,6.70
2018,02,26,17,22,12.50
2018,02,26,17,23,8.20
2018,02,26,17,24,13.30
2018,02,26,17,25,11.50
2018,02,26,17,26,10.40
2018,02,26,17,27,9.80
2018,02,26,17,28,11.30
2018,02,26,17,29,9.10
2018,02,26,17,30,9.50
2018,02,26,17,31,10.00
2018,02,26,17,32,12.30
2018,02,26,17,33,9.60
2018,02,26,17,34,10.10
2018,02,26,17,35,13.90
2018,02,26,17,36,12.90
2018,02,26,17,37,12.20
2018,02,26,17,38,10.30
2018,02,26,17,39,7.50
2018,02,26,17,40,8.40
2018,02,26,17,41,12.90
2018,02,26,17,42,10.40
2018,02,26,17,43,10.20
2018,02,26,17,44,11.60
2018,02,26,17,45,12.20
2018,02,26,17,46,14.10
2018,02,26,17,47,9.40
2018,02,26,17,48,8.10
2018,02,26,17,49,7.10
2018,02,26,17,50,8.70
2018,02,26,17,51,11.80
2018,02,26,17,52,9.40
2018,02,26,17,53,10.30
2018,02,26,17,54,7.30
2018,02,26,17,55,7.20
2018,02,26,17,56,7.00